| time (UTC) | temp F | wind direction | speed MPH | gust MPH | rain 1hr in | rain 24hr in | rain mn in | humidity % | barometer mb |
| 20260902203251 | 94 | 158 | 9.0 | 11.0 | 0.00 | 0.00 | 0.00 | 45 | |
| 20260902202745 | 93 | 153 | 6.0 | 8.0 | 0.00 | 0.00 | 0.00 | 46 | |
| 20260902202242 | 93 | 130 | 8.0 | 10.0 | 0.00 | 0.00 | 0.00 | 47 | |
| 20260902201738 | 93 | 135 | 8.0 | 10.0 | 0.00 | 0.00 | 0.00 | 45 | |
| 20260902201237 | 93 | 227 | 8.0 | 11.0 | 0.00 | 0.00 | 0.00 | 47 | |
| 20260902200733 | 95 | 212 | 12.0 | 14.0 | 0.00 | 0.00 | 0.00 | 46 | |
| 20260902200228 | 95 | 127 | 4.0 | 7.0 | 0.00 | 0.00 | 0.00 | 44 | |
| 20260902195724 | 94 | 126 | 4.0 | 6.0 | 0.00 | 0.00 | 0.00 | 46 | |
| 20260902195223 | 94 | 82 | 5.0 | 8.0 | 0.00 | 0.00 | 0.00 | 47 | |
| 20260902194723 | 94 | 75 | 5.0 | 9.0 | 0.00 | 0.00 | 0.00 | 46 | |
| 20260902194218 | 94 | 64 | 8.0 | 9.0 | 0.00 | 0.00 | 0.00 | 46 | |
| 20260902193713 | 94 | 112 | 5.0 | 7.0 | 0.00 | 0.00 | 0.00 | 46 | |
| 20260902193209 | 94 | 59 | 7.0 | 10.0 | 0.00 | 0.00 | 0.00 | 46 | |
| 20260902192707 | 95 | 82 | 6.0 | 9.0 | 0.00 | 0.00 | 0.00 | 46 | |
| 20260902192206 | 95 | 102 | 5.0 | 8.0 | 0.00 | 0.00 | 0.00 | 44 | |
| 20260902191701 | 95 | 76 | 4.0 | 5.0 | 0.00 | 0.00 | 0.00 | 45 | |
| 20260902191155 | 95 | 116 | 4.0 | 6.0 | 0.00 | 0.00 | 0.00 | 45 | |
| 20260902190651 | 96 | 93 | 4.0 | 6.0 | 0.00 | 0.00 | 0.00 | 44 | |
| 20260902190146 | 96 | 194 | 2.0 | 2.0 | 0.00 | 0.00 | 0.00 | 42 | |
| 20260902185641 | 95 | 9 | 2.0 | 2.0 | 0.00 | 0.00 | 0.00 | 42 | |
| 20260902185137 | 95 | 131 | 3.0 | 5.0 | 0.00 | 0.00 | 0.00 | 42 | |
| 20260902184632 | 95 | 6 | 1.0 | 2.0 | 0.00 | 0.00 | 0.00 | 43 | |
| 20260902184127 | 95 | 27 | 1.0 | 2.0 | 0.00 | 0.00 | 0.00 | 43 | |
| 20260902183623 | 95 | 225 | 5.0 | 8.0 | 0.00 | 0.00 | 0.00 | 44 | |
| 20260902183120 | 96 | 228 | 5.0 | 8.0 | 0.00 | 0.00 | 0.00 | 43 | |
| 20260902182615 | 98 | 346 | 4.0 | 5.0 | 0.00 | 0.00 | 0.00 | 41 | |
| 20260902182112 | 98 | 109 | 1.0 | 3.0 | 0.00 | 0.00 | 0.00 | 40 | |
| 20260902181608 | 97 | 129 | 3.0 | 8.0 | 0.00 | 0.00 | 0.00 | 41 | |
| 20260902181106 | 96 | 182 | 7.0 | 9.0 | 0.00 | 0.00 | 0.00 | 42 | |
| 20260902180601 | 96 | 192 | 8.0 | 9.0 | 0.00 | 0.00 | 0.00 | 42 | |
| 20260902180057 | 96 | 144 | 6.0 | 9.0 | 0.00 | 0.00 | 0.00 | 42 | |
| 20260902175557 | 97 | 206 | 9.0 | 11.0 | 0.00 | 0.00 | 0.00 | 42 | |
| 20260902175053 | 96 | 194 | 5.0 | 9.0 | 0.00 | 0.00 | 0.00 | 43 | |
| 20260902174549 | 95 | 231 | 3.0 | 7.0 | 0.00 | 0.00 | 0.00 | 44 | |
| 20260902174044 | 96 | 151 | 3.0 | 15.0 | 0.00 | 0.00 | 0.00 | 44 | |
| 20260902173544 | 95 | 348 | 1.0 | 5.0 | 0.00 | 0.00 | 0.00 | 44 | |
| 20260902173038 | 94 | 17 | 5.0 | 7.0 | 0.00 | 0.00 | 0.00 | 45 | |
| 20260902172533 | 95 | 171 | 4.0 | 7.0 | 0.00 | 0.00 | 0.00 | 44 | |
| 20260902172028 | 95 | 262 | 6.0 | 8.0 | 0.00 | 0.00 | 0.00 | 44 | |
| 20260902171524 | 95 | 265 | 4.0 | 6.0 | 0.00 | 0.00 | 0.00 | 45 | |
| 20260902171020 | 94 | 117 | 3.0 | 8.0 | 0.00 | 0.00 | 0.00 | 45 | |
| 20260902170514 | 94 | 137 | 3.0 | 6.0 | 0.00 | 0.00 | 0.00 | 45 | |
| 20260902170010 | 94 | 212 | 4.0 | 8.0 | 0.00 | 0.00 | 0.00 | 46 | |
| 20260902165509 | 94 | 107 | 4.0 | 9.0 | 0.00 | 0.00 | 0.00 | 46 | |
| 20260902165004 | 94 | 182 | 5.0 | 8.0 | 0.00 | 0.00 | 0.00 | 45 | |
| 20260902164459 | 94 | 223 | 3.0 | 8.0 | 0.00 | 0.00 | 0.00 | 45 | |
| 20260902163958 | 94 | 253 | 4.0 | 6.0 | 0.00 | 0.00 | 0.00 | 47 | |
| 20260902163454 | 93 | 247 | 3.0 | 6.0 | 0.00 | 0.00 | 0.00 | 48 | |
| 20260902162951 | 93 | 242 | 10.0 | 11.0 | 0.00 | 0.00 | 0.00 | 48 | |
| 20260902162446 | 93 | 240 | 3.0 | 5.0 | 0.00 | 0.00 | 0.00 | 48 | |
| 20260902161941 | 92 | 281 | 3.0 | 6.0 | 0.00 | 0.00 | 0.00 | 50 | |
| 20260902161436 | 91 | 170 | 8.0 | 9.0 | 0.00 | 0.00 | 0.00 | 50 | |
| 20260902160932 | 91 | 227 | 5.0 | 8.0 | 0.00 | 0.00 | 0.00 | 50 | |
| 20260902160427 | 91 | 278 | 5.0 | 9.0 | 0.00 | 0.00 | 0.00 | 50 | |
| 20260902155925 | 91 | 306 | 4.0 | 7.0 | 0.00 | 0.00 | 0.00 | 50 | |
| 20260902155421 | 90 | 235 | 2.0 | 6.0 | 0.00 | 0.00 | 0.00 | 52 | |
| 20260902154914 | 90 | 292 | 4.0 | 8.0 | 0.00 | 0.00 | 0.00 | 52 | |
| 20260902154410 | 90 | 259 | 6.0 | 8.0 | 0.00 | 0.00 | 0.00 | 52 | |
| 20260902153909 | 89 | 236 | 5.0 | 9.0 | 0.00 | 0.00 | 0.00 | 53 | |
| 20260902153408 | 89 | 228 | 7.0 | 8.0 | 0.00 | 0.00 | 0.00 | 53 | |
| 20260902152904 | 89 | 278 | 7.0 | 10.0 | 0.00 | 0.00 | 0.00 | 53 | |
| 20260902152400 | 88 | 236 | 4.0 | 6.0 | 0.00 | 0.00 | 0.00 | 56 | |
| 20260902151856 | 88 | 257 | 5.0 | 6.0 | 0.00 | 0.00 | 0.00 | 56 | |
| 20260902151351 | 87 | 234 | 4.0 | 7.0 | 0.00 | 0.00 | 0.00 | 57 | |
| 20260902150851 | 87 | 285 | 5.0 | 8.0 | 0.00 | 0.00 | 0.00 | 58 | |
| 20260902150347 | 86 | 234 | 5.0 | 6.0 | 0.00 | 0.00 | 0.00 | 60 | |
| 20260902145846 | 86 | 226 | 5.0 | 7.0 | 0.00 | 0.00 | 0.00 | 62 | |
| 20260902145342 | 85 | 227 | 8.0 | 9.0 | 0.00 | 0.00 | 0.00 | 62 | |
| 20260902144837 | 85 | 248 | 6.0 | 7.0 | 0.00 | 0.00 | 0.00 | 62 | |
| 20260902144333 | 84 | 284 | 5.0 | 9.0 | 0.00 | 0.00 | 0.00 | 64 | |
| 20260902143828 | 84 | 240 | 7.0 | 9.0 | 0.00 | 0.00 | 0.00 | 65 | |
| 20260902143328 | 84 | 211 | 6.0 | 9.0 | 0.00 | 0.00 | 0.00 | 67 | |
| 20260902142824 | 83 | 227 | 7.0 | 8.0 | 0.00 | 0.00 | 0.00 | 68 | |
| 20260902142320 | 83 | 226 | 5.0 | 6.0 | 0.00 | 0.00 | 0.00 | 71 | |
| 20260902141814 | 82 | 263 | 6.0 | 10.0 | 0.00 | 0.00 | 0.00 | 71 | |
| 20260902141310 | 82 | 274 | 2.0 | 6.0 | 0.00 | 0.00 | 0.00 | 73 | |
| 20260902140804 | 81 | 195 | 5.0 | 8.0 | 0.00 | 0.00 | 0.00 | 75 | |
| 20260902140259 | 81 | 205 | 2.0 | 6.0 | 0.00 | 0.00 | 0.00 | 76 | |
| 20260902135758 | 80 | 250 | 5.0 | 7.0 | 0.00 | 0.00 | 0.00 | 77 | |
| 20260902135254 | 80 | 232 | 6.0 | 8.0 | 0.00 | 0.00 | 0.00 | 77 | |
| 20260902134754 | 79 | 232 | 4.0 | 6.0 | 0.00 | 0.00 | 0.00 | 78 | |
| 20260902134249 | 79 | 253 | 3.0 | 7.0 | 0.00 | 0.00 | 0.00 | 77 | |
| 20260902133745 | 79 | 224 | 5.0 | 9.0 | 0.00 | 0.00 | 0.00 | 77 | |
| 20260902133244 | 79 | 227 | 2.0 | 3.0 | 0.00 | 0.00 | 0.00 | 77 | |
| 20260902132739 | 79 | 231 | 3.0 | 6.0 | 0.00 | 0.00 | 0.00 | 77 | |
| 20260902132235 | 79 | 215 | 3.0 | 5.0 | 0.00 | 0.00 | 0.00 | 76 | |
| 20260902131730 | 80 | 223 | 1.0 | 2.0 | 0.00 | 0.00 | 0.00 | 75 | |
| 20260902131227 | 79 | 115 | 0.0 | 0.0 | 0.00 | 0.00 | 0.00 | 75 | |
| 20260902130726 | 78 | 126 | 0.0 | 0.0 | 0.00 | 0.00 | 0.00 | 77 | |
| 20260902130222 | 77 | 139 | 0.0 | 0.0 | 0.00 | 0.00 | 0.00 | 78 | |
| 20260902125717 | 76 | 205 | 0.0 | 0.0 | 0.00 | 0.00 | 0.00 | 81 | |
| 20260902125213 | 75 | 207 | 0.0 | 0.0 | 0.00 | 0.00 | 0.00 | 81 | |
| 20260902124709 | 75 | 207 | 0.0 | 0.0 | 0.00 | 0.00 | 0.00 | 82 | |
| 20260902124210 | 75 | 207 | 0.0 | 1.0 | 0.00 | 0.00 | 0.00 | 82 | |
| 20260902123705 | 75 | 210 | 0.0 | 1.0 | 0.00 | 0.00 | 0.00 | 82 | |
| 20260902123201 | 75 | 210 | 0.0 | 1.0 | 0.00 | 0.00 | 0.00 | 81 | |
| 20260902122700 | 75 | 207 | 1.0 | 2.0 | 0.00 | 0.00 | 0.00 | 81 | |
| 20260902122156 | 76 | 193 | 2.0 | 2.0 | 0.00 | 0.00 | 0.00 | 80 | |
| 20260902121651 | 76 | 164 | 1.0 | 2.0 | 0.00 | 0.00 | 0.00 | 80 | |
| 20260902121150 | 76 | 164 | 2.0 | 3.0 | 0.00 | 0.00 | 0.00 | 80 | |
| 20260902120647 | 76 | 170 | 2.0 | 3.0 | 0.00 | 0.00 | 0.00 | 79 | |
| 20260902120144 | 76 | 178 | 2.0 | 2.0 | 0.00 | 0.00 | 0.00 | 79 | |
| 20260902115637 | 76 | 160 | 1.0 | 1.0 | 0.00 | 0.00 | 0.00 | 79 | |
| 20260902115134 | 76 | 156 | 1.0 | 1.0 | 0.00 | 0.00 | 0.00 | 79 | |
| 20260902114629 | 76 | 160 | 0.0 | 1.0 | 0.00 | 0.00 | 0.00 | 79 | |
| 20260902114129 | 76 | 148 | 0.0 | 1.0 | 0.00 | 0.00 | 0.00 | 79 | |
| 20260902113625 | 76 | 164 | 0.0 | 1.0 | 0.00 | 0.00 | 0.00 | 79 | |
| 20260902113120 | 77 | 167 | 0.0 | 1.0 | 0.00 | 0.00 | 0.00 | 78 | |
| 20260902112615 | 77 | 173 | 1.0 | 1.0 | 0.00 | 0.00 | 0.00 | 79 | |
| 20260902112112 | 77 | 177 | 1.0 | 1.0 | 0.00 | 0.00 | 0.00 | 78 | |
| 20260902111608 | 77 | 225 | 2.0 | 3.0 | 0.00 | 0.00 | 0.00 | 78 | |
| 20260902111103 | 77 | 213 | 2.0 | 5.0 | 0.00 | 0.00 | 0.00 | 78 | |
| 20260902110559 | 77 | 229 | 2.0 | 6.0 | 0.00 | 0.00 | 0.00 | 78 | |
| 20260902110054 | 77 | 237 | 3.0 | 3.0 | 0.00 | 0.00 | 0.00 | 78 | |
| 20260902105549 | 77 | 245 | 2.0 | 3.0 | 0.00 | 0.00 | 0.00 | 78 | |
| 20260902105049 | 77 | 269 | 2.0 | 5.0 | 0.00 | 0.00 | 0.00 | 78 | |
| 20260902104544 | 77 | 242 | 3.0 | 3.0 | 0.00 | 0.00 | 0.00 | 78 | |
| 20260902104039 | 77 | 273 | 2.0 | 2.0 | 0.00 | 0.00 | 0.00 | 77 | |
| 20260902103534 | 77 | 262 | 3.0 | 5.0 | 0.00 | 0.00 | 0.00 | 77 | |
| 20260902103029 | 78 | 249 | 2.0 | 3.0 | 0.00 | 0.00 | 0.00 | 77 | |
| 20260902102526 | 78 | 240 | 3.0 | 5.0 | 0.00 | 0.00 | 0.00 | 76 | |
| 20260902102023 | 78 | 233 | 5.0 | 8.0 | 0.00 | 0.00 | 0.00 | 76 | |
| 20260902101518 | 78 | 191 | 5.0 | 8.0 | 0.00 | 0.00 | 0.00 | 76 | |
| 20260902101017 | 78 | 207 | 5.0 | 7.0 | 0.00 | 0.00 | 0.00 | 76 | |
| 20260902100512 | 78 | 231 | 6.0 | 10.0 | 0.00 | 0.00 | 0.00 | 76 | |
| 20260902100012 | 78 | 211 | 4.0 | 9.0 | 0.00 | 0.00 | 0.00 | 76 | |
| 20260902095511 | 78 | 247 | 8.0 | 9.0 | 0.00 | 0.00 | 0.00 | 76 | |
| 20260902095010 | 78 | 210 | 7.0 | 9.0 | 0.00 | 0.00 | 0.00 | 76 | |
| 20260902094506 | 78 | 210 | 5.0 | 9.0 | 0.00 | 0.00 | 0.00 | 76 | |
| 20260902094001 | 78 | 208 | 4.0 | 8.0 | 0.00 | 0.00 | 0.00 | 76 | |
| 20260902093456 | 78 | 221 | 9.0 | 9.0 | 0.00 | 0.00 | 0.00 | 76 | |
| 20260902092955 | 78 | 221 | 4.0 | 8.0 | 0.00 | 0.00 | 0.00 | 76 | |
| 20260902092451 | 78 | 215 | 7.0 | 10.0 | 0.00 | 0.00 | 0.00 | 77 | |
| 20260902091950 | 78 | 199 | 7.0 | 11.0 | 0.00 | 0.00 | 0.00 | 77 | |
| 20260902091446 | 78 | 187 | 7.0 | 9.0 | 0.00 | 0.00 | 0.00 | 76 | |
| 20260902090942 | 78 | 167 | 5.0 | 8.0 | 0.00 | 0.00 | 0.00 | 76 | |
| 20260902090437 | 78 | 214 | 4.0 | 7.0 | 0.00 | 0.00 | 0.00 | 76 | |
| 20260902085936 | 78 | 194 | 5.0 | 7.0 | 0.00 | 0.00 | 0.00 | 76 | |
| 20260902085431 | 78 | 194 | 5.0 | 6.0 | 0.00 | 0.00 | 0.00 | 76 | |
| 20260902084927 | 78 | 235 | 3.0 | 8.0 | 0.00 | 0.00 | 0.00 | 75 | |
| 20260902084423 | 78 | 204 | 4.0 | 6.0 | 0.00 | 0.00 | 0.00 | 75 | |
| 20260902083919 | 78 | 197 | 3.0 | 6.0 | 0.00 | 0.00 | 0.00 | 75 | |
| 20260902083418 | 78 | 204 | 4.0 | 8.0 | 0.00 | 0.00 | 0.00 | 75 | |
| 20260902082913 | 79 | 233 | 6.0 | 10.0 | 0.00 | 0.00 | 0.00 | 75 | |
| 20260902082409 | 79 | 241 | 4.0 | 8.0 | 0.00 | 0.00 | 0.00 | 74 | |
| 20260902081906 | 79 | 207 | 3.0 | 9.0 | 0.00 | 0.00 | 0.00 | 74 | |
| 20260902081401 | 79 | 205 | 7.0 | 9.0 | 0.00 | 0.00 | 0.00 | 74 | |
| 20260902080856 | 79 | 210 | 5.0 | 8.0 | 0.00 | 0.00 | 0.00 | 74 | |
| 20260902080353 | 79 | 202 | 4.0 | 9.0 | 0.00 | 0.00 | 0.00 | 74 | |
| 20260902075852 | 79 | 215 | 4.0 | 7.0 | 0.00 | 0.00 | 0.00 | 74 | |
| 20260902075348 | 79 | 196 | 5.0 | 6.0 | 0.00 | 0.00 | 0.00 | 73 | |
| 20260902074843 | 79 | 213 | 3.0 | 6.0 | 0.00 | 0.00 | 0.00 | 73 | |
| 20260902074339 | 79 | 202 | 4.0 | 7.0 | 0.00 | 0.00 | 0.00 | 73 | |
| 20260902073833 | 79 | 200 | 5.0 | 6.0 | 0.00 | 0.00 | 0.00 | 72 | |
| 20260902073330 | 80 | 217 | 5.0 | 7.0 | 0.00 | 0.00 | 0.00 | 72 | |
| 20260902072826 | 80 | 247 | 4.0 | 5.0 | 0.00 | 0.00 | 0.00 | 72 | |
| 20260902072321 | 80 | 209 | 2.0 | 3.0 | 0.00 | 0.00 | 0.00 | 72 | |
| 20260902071817 | 80 | 209 | 4.0 | 7.0 | 0.00 | 0.00 | 0.00 | 71 | |
| 20260902071312 | 80 | 208 | 3.0 | 5.0 | 0.00 | 0.00 | 0.00 | 71 | |
| 20260902070809 | 80 | 199 | 5.0 | 6.0 | 0.00 | 0.00 | 0.00 | 71 | |
| 20260902070308 | 80 | 213 | 4.0 | 7.0 | 0.00 | 0.00 | 0.00 | 72 | |
| 20260902065807 | 80 | 196 | 3.0 | 6.0 | 0.00 | 0.00 | 0.00 | 73 | |
| 20260902065306 | 80 | 202 | 4.0 | 7.0 | 0.00 | 0.00 | 0.00 | 73 | |
| 20260902064758 | 80 | 198 | 4.0 | 6.0 | 0.00 | 0.00 | 0.00 | 72 | |
| 20260902064254 | 80 | 160 | 3.0 | 6.0 | 0.00 | 0.00 | 0.00 | 72 | |
| 20260902063749 | 80 | 194 | 5.0 | 6.0 | 0.00 | 0.00 | 0.00 | 73 | |
| 20260902063244 | 80 | 201 | 5.0 | 7.0 | 0.00 | 0.00 | 0.00 | 73 | |
| 20260902062743 | 80 | 194 | 5.0 | 6.0 | 0.00 | 0.00 | 0.00 | 73 | |
| 20260902062238 | 80 | 174 | 5.0 | 7.0 | 0.00 | 0.00 | 0.00 | 74 | |
| 20260902061737 | 80 | 165 | 5.0 | 8.0 | 0.00 | 0.00 | 0.00 | 74 | |
| 20260902061233 | 80 | 181 | 3.0 | 7.0 | 0.00 | 0.00 | 0.00 | 74 | |
| 20260902060730 | 80 | 172 | 4.0 | 6.0 | 0.00 | 0.00 | 0.00 | 74 | |
| 20260902060225 | 80 | 164 | 4.0 | 6.0 | 0.00 | 0.00 | 0.00 | 74 | |
| 20260902055720 | 80 | 194 | 3.0 | 5.0 | 0.00 | 0.00 | 0.00 | 74 | |
| 20260902055217 | 80 | 185 | 3.0 | 5.0 | 0.00 | 0.00 | 0.00 | 74 | |
| 20260902054712 | 80 | 168 | 3.0 | 6.0 | 0.00 | 0.00 | 0.00 | 73 | |
| 20260902054207 | 80 | 172 | 2.0 | 3.0 | 0.00 | 0.00 | 0.00 | 73 | |
| 20260902053703 | 81 | 176 | 2.0 | 5.0 | 0.00 | 0.00 | 0.00 | 73 | |
| 20260902053202 | 81 | 176 | 3.0 | 5.0 | 0.00 | 0.00 | 0.00 | 72 | |
| 20260902052701 | 81 | 153 | 3.0 | 6.0 | 0.00 | 0.00 | 0.00 | 72 | |
| 20260902052157 | 81 | 121 | 2.0 | 5.0 | 0.00 | 0.00 | 0.00 | 71 | |
| 20260902051655 | 82 | 190 | 5.0 | 8.0 | 0.00 | 0.00 | 0.00 | 71 | |
| 20260902051151 | 82 | 175 | 2.0 | 6.0 | 0.00 | 0.00 | 0.00 | 70 | |
| 20260902050645 | 82 | 188 | 3.0 | 6.0 | 0.00 | 0.00 | 0.00 | 70 | |
| 20260902050141 | 82 | 190 | 4.0 | 6.0 | 0.00 | 0.00 | 0.00 | 69 | |
| 20260902045635 | 82 | 153 | 4.0 | 6.0 | 0.00 | 0.00 | 0.00 | 69 | |
| 20260902045132 | 83 | 167 | 7.0 | 8.0 | 0.00 | 0.00 | 0.00 | 68 | |
| 20260902044632 | 83 | 181 | 3.0 | 7.0 | 0.00 | 0.00 | 0.00 | 68 | |
| 20260902044128 | 84 | 127 | 2.0 | 7.0 | 0.00 | 0.00 | 0.00 | 67 | |
| 20260902043622 | 84 | 152 | 5.0 | 8.0 | 0.00 | 0.00 | 0.00 | 67 | |
| 20260902043118 | 84 | 147 | 4.0 | 7.0 | 0.00 | 0.00 | 0.00 | 66 | |
| 20260902042612 | 84 | 162 | 5.0 | 8.0 | 0.00 | 0.00 | 0.00 | 66 | |
| 20260902042108 | 84 | 156 | 5.0 | 8.0 | 0.00 | 0.00 | 0.00 | 65 | |
| 20260902041607 | 84 | 160 | 5.0 | 8.0 | 0.00 | 0.00 | 0.00 | 64 | |
| 20260902041102 | 85 | 169 | 3.0 | 8.0 | 0.00 | 0.00 | 0.00 | 64 | |
| 20260902040601 | 85 | 180 | 3.0 | 10.0 | 0.00 | 0.00 | 0.00 | 63 | |
| 20260902040056 | 85 | 161 | 10.0 | 11.0 | 0.00 | 0.00 | 0.00 | 62 | |
| 20260902035555 | 85 | 156 | 3.0 | 10.0 | 0.00 | 0.00 | 0.00 | 62 | |
| 20260902035050 | 85 | 133 | 5.0 | 10.0 | 0.00 | 0.00 | 0.00 | 62 | |
| 20260902034550 | 85 | 148 | 6.0 | 11.0 | 0.00 | 0.00 | 0.00 | 62 | |
| 20260902034049 | 86 | 152 | 8.0 | 10.0 | 0.00 | 0.00 | 0.00 | 61 | |
| 20260902033548 | 86 | 139 | 7.0 | 9.0 | 0.00 | 0.00 | 0.00 | 61 | |
| 20260902033043 | 86 | 180 | 5.0 | 7.0 | 0.00 | 0.00 | 0.00 | 61 | |
| 20260902032542 | 86 | 139 | 6.0 | 8.0 | 0.00 | 0.00 | 0.00 | 60 | |
| 20260902032037 | 86 | 154 | 7.0 | 9.0 | 0.00 | 0.00 | 0.00 | 60 | |
| 20260902031532 | 86 | 123 | 3.0 | 7.0 | 0.00 | 0.00 | 0.00 | 60 | |
| 20260902031028 | 86 | 136 | 5.0 | 8.0 | 0.00 | 0.00 | 0.00 | 59 | |
| 20260902030523 | 86 | 134 | 6.0 | 9.0 | 0.00 | 0.00 | 0.00 | 59 | |
| 20260902030022 | 87 | 133 | 5.0 | 8.0 | 0.00 | 0.00 | 0.00 | 58 | |
| 20260902025517 | 87 | 135 | 7.0 | 8.0 | 0.00 | 0.00 | 0.00 | 58 | |
| 20260902025012 | 87 | 140 | 3.0 | 8.0 | 0.00 | 0.00 | 0.00 | 58 | |
| 20260902024508 | 87 | 162 | 8.0 | 9.0 | 0.00 | 0.00 | 0.00 | 57 | |
| 20260902024002 | 87 | 134 | 7.0 | 8.0 | 0.00 | 0.00 | 0.00 | 57 | |
| 20260902023458 | 87 | 140 | 6.0 | 9.0 | 0.00 | 0.00 | 0.00 | 57 | |
| 20260902022957 | 87 | 151 | 7.0 | 8.0 | 0.00 | 0.00 | 0.00 | 57 | |
| 20260902022452 | 87 | 122 | 6.0 | 11.0 | 0.00 | 0.00 | 0.00 | 57 | |
| 20260902021948 | 88 | 114 | 4.0 | 5.0 | 0.00 | 0.00 | 0.00 | 57 | |
| 20260902021443 | 88 | 99 | 7.0 | 8.0 | 0.00 | 0.00 | 0.00 | 57 | |
| 20260902020938 | 88 | 125 | 7.0 | 9.0 | 0.00 | 0.00 | 0.00 | 56 | |
| 20260902020435 | 88 | 131 | 7.0 | 8.0 | 0.00 | 0.00 | 0.00 | 56 | |
| 20260902015930 | 88 | 134 | 5.0 | 8.0 | 0.00 | 0.00 | 0.00 | 56 | |
| 20260902015426 | 89 | 141 | 4.0 | 8.0 | 0.00 | 0.00 | 0.00 | 56 | |
| 20260902014921 | 89 | 133 | 5.0 | 8.0 | 0.00 | 0.00 | 0.00 | 56 | |
| 20260902014418 | 89 | 123 | 4.0 | 9.0 | 0.00 | 0.00 | 0.00 | 55 | |
| 20260902013916 | 89 | 133 | 6.0 | 8.0 | 0.00 | 0.00 | 0.00 | 55 | |
| 20260902013412 | 89 | 144 | 7.0 | 8.0 | 0.00 | 0.00 | 0.00 | 54 | |
| 20260902012907 | 90 | 125 | 5.0 | 9.0 | 0.00 | 0.00 | 0.00 | 54 | |
| 20260902012403 | 90 | 132 | 5.0 | 6.0 | 0.00 | 0.00 | 0.00 | 54 | |
| 20260902011858 | 90 | 166 | 6.0 | 8.0 | 0.00 | 0.00 | 0.00 | 54 | |
| 20260902011353 | 90 | 127 | 4.0 | 9.0 | 0.00 | 0.00 | 0.00 | 53 | |
| 20260902010852 | 90 | 114 | 5.0 | 7.0 | 0.00 | 0.00 | 0.00 | 53 | |
| 20260902010347 | 90 | 118 | 4.0 | 5.0 | 0.00 | 0.00 | 0.00 | 52 | |
| 20260902005846 | 91 | 136 | 5.0 | 6.0 | 0.00 | 0.00 | 0.00 | 52 | |
| 20260902005341 | 91 | 130 | 4.0 | 6.0 | 0.00 | 0.00 | 0.00 | 51 | |
| 20260902004837 | 91 | 130 | 8.0 | 9.0 | 0.00 | 0.00 | 0.00 | 51 | |
| 20260902004336 | 91 | 136 | 4.0 | 6.0 | 0.00 | 0.00 | 0.00 | 51 | |
| 20260902003832 | 91 | 143 | 5.0 | 7.0 | 0.00 | 0.00 | 0.00 | 50 | |
| 20260902003327 | 91 | 110 | 5.0 | 7.0 | 0.00 | 0.00 | 0.00 | 50 | |
| 20260902002823 | 92 | 138 | 6.0 | 9.0 | 0.00 | 0.00 | 0.00 | 50 | |
| 20260902002322 | 92 | 117 | 4.0 | 6.0 | 0.00 | 0.00 | 0.00 | 50 | |
| 20260902001817 | 92 | 144 | 7.0 | 10.0 | 0.00 | 0.00 | 0.00 | 49 | |
| 20260902001312 | 92 | 124 | 7.0 | 9.0 | 0.00 | 0.00 | 0.00 | 49 | |
| 20260902000812 | 92 | 141 | 9.0 | 9.0 | 0.00 | 0.00 | 0.00 | 49 | |
| 20260902000307 | 93 | 129 | 8.0 | 11.0 | 0.00 | 0.00 | 0.00 | 48 | |
| 20260901235802 | 93 | 130 | 7.0 | 9.0 | 0.00 | 0.00 | 0.00 | 47 | |
| 20260901235257 | 93 | 118 | 11.0 | 14.0 | 0.00 | 0.00 | 0.00 | 46 | |
| 20260901234756 | 94 | 114 | 8.0 | 14.0 | 0.00 | 0.00 | 0.00 | 45 | |
| 20260901234251 | 95 | 104 | 9.0 | 10.0 | 0.00 | 0.00 | 0.00 | 43 | |
| 20260901233746 | 95 | 109 | 5.0 | 9.0 | 0.00 | 0.00 | 0.00 | 42 | |
| 20260901233242 | 95 | 85 | 6.0 | 13.0 | 0.00 | 0.00 | 0.00 | 43 | |
| 20260901232742 | 95 | 137 | 4.0 | 6.0 | 0.00 | 0.00 | 0.00 | 42 | |
| 20260901232237 | 95 | 59 | 10.0 | 13.0 | 0.00 | 0.00 | 0.00 | 42 | |
| 20260901231734 | 96 | 80 | 9.0 | 9.0 | 0.00 | 0.00 | 0.00 | 41 | |
| 20260901231230 | 96 | 100 | 5.0 | 7.0 | 0.00 | 0.00 | 0.00 | 41 | |
| 20260901230726 | 96 | 62 | 5.0 | 9.0 | 0.00 | 0.00 | 0.00 | 41 | |
| 20260901230225 | 96 | 72 | 1.0 | 6.0 | 0.00 | 0.00 | 0.00 | 41 | |
| 20260901225720 | 96 | 349 | 2.0 | 3.0 | 0.00 | 0.00 | 0.00 | 41 | |
| 20260901225215 | 97 | 101 | 5.0 | 9.0 | 0.00 | 0.00 | 0.00 | 41 | |
| 20260901224711 | 96 | 170 | 3.0 | 6.0 | 0.00 | 0.00 | 0.00 | 41 | |
| 20260901224207 | 96 | 97 | 3.0 | 7.0 | 0.00 | 0.00 | 0.00 | 41 | |
| 20260901223702 | 96 | 37 | 5.0 | 8.0 | 0.00 | 0.00 | 0.00 | 41 | |
| 20260901223157 | 96 | 111 | 6.0 | 11.0 | 0.00 | 0.00 | 0.00 | 40 | |
| 20260901222653 | 97 | 52 | 5.0 | 10.0 | 0.00 | 0.00 | 0.00 | 39 | |
| 20260901222149 | 97 | 149 | 4.0 | 7.0 | 0.00 | 0.00 | 0.00 | 41 | |
| 20260901221645 | 96 | 62 | 8.0 | 10.0 | 0.00 | 0.00 | 0.00 | 41 | |
| 20260901221141 | 97 | 97 | 9.0 | 17.0 | 0.00 | 0.00 | 0.00 | 42 | |
| 20260901220640 | 97 | 31 | 3.0 | 5.0 | 0.00 | 0.00 | 0.00 | 41 | |
| 20260901220139 | 97 | 79 | 3.0 | 7.0 | 0.00 | 0.00 | 0.00 | 42 | |
| 20260901215638 | 97 | 102 | 6.0 | 9.0 | 0.00 | 0.00 | 0.00 | 41 | |
| 20260901215132 | 98 | 159 | 2.0 | 7.0 | 0.00 | 0.00 | 0.00 | 40 | |
| 20260901214631 | 97 | 90 | 0.0 | 3.0 | 0.00 | 0.00 | 0.00 | 40 | |
| 20260901214130 | 96 | 142 | 3.0 | 6.0 | 0.00 | 0.00 | 0.00 | 41 | |
| 20260901213625 | 96 | 135 | 5.0 | 8.0 | 0.00 | 0.00 | 0.00 | 41 | |
| 20260901213120 | 96 | 97 | 3.0 | 10.0 | 0.00 | 0.00 | 0.00 | 43 | |
| 20260901212619 | 97 | 142 | 6.0 | 15.0 | 0.00 | 0.00 | 0.00 | 43 | |
| 20260901212115 | 97 | 136 | 6.0 | 10.0 | 0.00 | 0.00 | 0.00 | 43 | |
| 20260901211610 | 96 | 118 | 5.0 | 7.0 | 0.00 | 0.00 | 0.00 | 43 | |
| 20260901211107 | 96 | 1 | 5.0 | 7.0 | 0.00 | 0.00 | 0.00 | 43 | |
| 20260901210602 | 96 | 116 | 7.0 | 9.0 | 0.00 | 0.00 | 0.00 | 43 | |
| 20260901210058 | 96 | 111 | 2.0 | 5.0 | 0.00 | 0.00 | 0.00 | 44 | |
| 20260901205554 | 96 | 121 | 4.0 | 7.0 | 0.00 | 0.00 | 0.00 | 44 | |
| 20260901205053 | 97 | 122 | 9.0 | 16.0 | 0.00 | 0.00 | 0.00 | 44 | |
| 20260901204549 | 96 | 91 | 1.0 | 5.0 | 0.00 | 0.00 | 0.00 | 44 | |
| 20260901204045 | 95 | 69 | 0.0 | 7.0 | 0.00 | 0.00 | 0.00 | 45 | |
| 20260901203544 | 96 | 125 | 7.0 | 10.0 | 0.00 | 0.00 | 0.00 | 45 |